Allentown, PA

10:17 PM EDT on October 14, 2019 (GMT -0400)
Allentown

Weather History for KXLL - May, 2019

Change the Weather History Date:

Friday, May 31, 2019

  Actual Average (KABE) Record (KABE)
Temperature  
Mean Temperature 70 °F -  
Max Temperature 77 °F 76 °F 95 °F (1939)
Min Temperature 62 °F 56 °F 37 °F (2001)
Cooling Degree Days 4    
Growing Degree Days 20 (Base 50)    
Moisture  
Dew Point 61 °F    
Average Humidity 76    
Maximum Humidity 100    
Minimum Humidity 47    
Precipitation  
Precipitation 0.01 in - - ()
Sea Level Pressure  
Sea Level Pressure 29.80 in    
Wind  
Wind Speed 4 mph ()    
Max Wind Speed 12 mph    
Max Gust Speed -    
Visibility 9.6 miles    
Events      
Averages and records for this station are not official NWS values.
T = Trace of Precipitation, MM = Missing Value Source: Averaged Metar Reports

Daily Weather History Graph

Daily Weather History Graph

Search for Another Location

Airport or City:

Astronomy

May. 31, 2019 Rise Set
Actual Time 5:34 AM EDT 8:25 PM EDT
Civil Twilight 5:01 AM EDT 8:58 PM EDT
Nautical Twilight 4:20 AM EDT 9:39 PM EDT
Astronomical Twilight 3:33 AM EDT 10:26 PM EDT
Moon 4:07 AM EDT (5/31) 5:31 PM EDT (5/31)
Length of Visible Light 15h 56m
Length of Day
14h 51m
Waning Crescent, 9% of the Moon is Illuminated
May 31
Waning Crescent
Jun 3
New
Jun 10
First Quarter
Jun 17
Full
Jun 25
Last Quarter

Hourly Weather History & Observations

Time (EDT) Temp. Dew Point Humidity Pressure Visibility Wind Dir Wind Speed Gust Speed Precip Events Conditions
12:15 AM 68.0 °F 66.2 °F 94% 29.70 in 10.0 mi WSW 3.5 mph - N/A   Mostly Cloudy
12:35 AM 68.0 °F 68.0 °F 100% 29.71 in 10.0 mi SW 4.6 mph - N/A   Overcast
12:55 AM 66.2 °F 66.2 °F 100% 29.71 in 10.0 mi SSW 3.5 mph - N/A   Scattered Clouds
1:15 AM 64.4 °F 64.4 °F 100% 29.71 in 5.0 mi Calm Calm - N/A   Clear
1:35 AM 64.4 °F 64.4 °F 100% 29.72 in 3.0 mi Calm Calm - N/A   Clear
1:55 AM 64.4 °F 64.4 °F 100% 29.72 in 7.0 mi WSW 3.5 mph - N/A   Clear
2:15 AM 64.4 °F 64.4 °F 100% 29.71 in 10.0 mi SW 4.6 mph - N/A   Clear
2:35 AM 64.4 °F 64.4 °F 100% 29.71 in 10.0 mi SW 3.5 mph - N/A   Clear
2:55 AM 64.4 °F 64.4 °F 100% 29.71 in 10.0 mi South 3.5 mph - N/A   Clear
3:15 AM 64.4 °F 64.4 °F 100% 29.71 in 10.0 mi SSW 4.6 mph - N/A   Clear
3:35 AM 62.6 °F 62.6 °F 100% 29.72 in 10.0 mi SSW 4.6 mph - N/A   Clear
3:55 AM 62.6 °F 62.6 °F 100% 29.72 in 7.0 mi Calm Calm - 0.01 in   Clear
4:15 AM 62.6 °F 62.6 °F 100% 29.73 in 7.0 mi South 4.6 mph - N/A   Clear
4:35 AM 62.6 °F 62.6 °F 100% 29.74 in 10.0 mi South 5.8 mph - N/A   Clear
4:55 AM 62.6 °F 62.6 °F 100% 29.75 in 10.0 mi South 4.6 mph - N/A   Clear
5:15 AM 62.6 °F 62.6 °F 100% 29.75 in 10.0 mi SSW 5.8 mph - N/A   Clear
5:35 AM 62.6 °F 62.6 °F 100% 29.75 in 7.0 mi SSW 4.6 mph - N/A   Clear
5:55 AM 62.6 °F 62.6 °F 100% 29.76 in 7.0 mi South 4.6 mph - N/A   Clear
6:15 AM 62.6 °F 62.6 °F 100% 29.77 in 7.0 mi SSW 3.5 mph - N/A   Clear
6:35 AM 62.6 °F 62.6 °F 100% 29.78 in 10.0 mi WSW 5.8 mph - N/A   Clear
6:55 AM 64.4 °F 64.4 °F 100% 29.78 in 10.0 mi SW 4.6 mph - N/A   Clear
7:15 AM 64.4 °F 64.4 °F 100% 29.79 in 10.0 mi SW 5.8 mph - N/A   Clear
7:35 AM 64.4 °F 64.4 °F 100% 29.80 in 10.0 mi SW 6.9 mph - N/A   Clear
7:55 AM 66.2 °F 62.6 °F 88% 29.81 in 10.0 mi West 4.6 mph - N/A   Clear
8:15 AM 68.0 °F 62.6 °F 83% 29.81 in 10.0 mi West 6.9 mph - N/A   Clear
8:35 AM 68.0 °F 62.6 °F 83% 29.82 in 10.0 mi West 6.9 mph - N/A   Scattered Clouds
8:55 AM 68.0 °F 60.8 °F 78% 29.83 in 10.0 mi WNW 5.8 mph - N/A   Mostly Cloudy
9:15 AM 68.0 °F 62.6 °F 83% 29.83 in 10.0 mi NW 6.9 mph - N/A   Overcast
9:35 AM 69.8 °F 60.8 °F 73% 29.83 in 10.0 mi WNW 8.1 mph - N/A   Mostly Cloudy
9:55 AM 69.8 °F 60.8 °F 73% 29.84 in 10.0 mi West 6.9 mph - N/A   Mostly Cloudy
10:15 AM 69.8 °F 60.8 °F 73% 29.84 in 10.0 mi WNW 6.9 mph - N/A   Scattered Clouds
10:35 AM 71.6 °F 60.8 °F 69% 29.84 in 10.0 mi West 4.6 mph - N/A   Clear
10:55 AM 71.6 °F 59.0 °F 64% 29.84 in 10.0 mi WNW 5.8 mph - N/A   Clear
11:15 AM 71.6 °F 59.0 °F 64% 29.84 in 10.0 mi NW 4.6 mph - N/A   Scattered Clouds
11:35 AM 73.4 °F 60.8 °F 65% 29.84 in 10.0 mi WNW 6.9 mph - N/A   Scattered Clouds
11:55 AM 73.4 °F 59.0 °F 61% 29.84 in 10.0 mi West 6.9 mph - N/A   Scattered Clouds
12:15 PM 73.4 °F 59.0 °F 61% 29.84 in 10.0 mi West 8.1 mph - N/A   Scattered Clouds
12:35 PM 73.4 °F 55.4 °F 53% 29.84 in 10.0 mi West 4.6 mph - N/A   Clear
12:55 PM 73.4 °F 57.2 °F 57% 29.83 in 10.0 mi SW 6.9 mph - N/A   Clear
1:15 PM 75.2 °F 57.2 °F 53% 29.83 in 10.0 mi West 6.9 mph - N/A   Clear
1:35 PM 75.2 °F 59.0 °F 57% 29.83 in 10.0 mi West 10.4 mph - N/A   Scattered Clouds
1:55 PM 75.2 °F 59.0 °F 57% 29.83 in 10.0 mi West 6.9 mph - N/A   Scattered Clouds
2:15 PM 77.0 °F 57.2 °F 50% 29.83 in 10.0 mi WSW 9.2 mph - N/A   Scattered Clouds
2:35 PM 77.0 °F 57.2 °F 50% 29.82 in 10.0 mi WSW 5.8 mph - N/A   Scattered Clouds
2:55 PM 77.0 °F 55.4 °F 47% 29.82 in 10.0 mi WSW 11.5 mph - N/A   Scattered Clouds
3:15 PM 77.0 °F 59.0 °F 54% 29.81 in 10.0 mi WSW 8.1 mph - N/A   Scattered Clouds
3:35 PM 75.2 °F 57.2 °F 53% 29.81 in 10.0 mi WSW 3.5 mph - N/A   Mostly Cloudy
3:55 PM 75.2 °F 57.2 °F 53% 29.81 in 10.0 mi West 5.8 mph - N/A   Overcast
4:15 PM 75.2 °F 57.2 °F 53% 29.81 in 10.0 mi West 6.9 mph - N/A   Overcast
4:35 PM 77.0 °F 59.0 °F 54% 29.81 in 10.0 mi WNW 4.6 mph - N/A   Mostly Cloudy
4:55 PM 77.0 °F 57.2 °F 50% 29.80 in 10.0 mi West 6.9 mph - N/A   Scattered Clouds
5:15 PM 77.0 °F 59.0 °F 54% 29.80 in 10.0 mi SW 6.9 mph - N/A   Clear
5:35 PM 77.0 °F 59.0 °F 54% 29.80 in 10.0 mi WSW 6.9 mph - N/A   Clear
5:55 PM 77.0 °F 57.2 °F 50% 29.80 in 10.0 mi WSW 5.8 mph - N/A   Clear
6:15 PM 77.0 °F 59.0 °F 54% 29.80 in 10.0 mi West 4.6 mph - N/A   Clear
6:35 PM 75.2 °F 57.2 °F 53% 29.80 in 10.0 mi West 8.1 mph - N/A   Clear
6:55 PM 75.2 °F 57.2 °F 53% 29.80 in 10.0 mi West 3.5 mph - N/A   Clear
7:10 PM 75.2 °F 55.4 °F 50% 29.80 in 10.0 mi Calm Calm - N/A   Clear
7:35 PM 73.4 °F 57.2 °F 57% 29.80 in 10.0 mi Calm Calm - N/A   Clear
7:55 PM 73.4 °F 57.2 °F 57% 29.81 in 10.0 mi West 3.5 mph - N/A   Clear
8:15 PM 71.6 °F 59.0 °F 64% 29.81 in 10.0 mi Calm Calm - N/A   Clear
8:35 PM 69.8 °F 57.2 °F 64% 29.82 in 10.0 mi SW 4.6 mph - N/A   Clear
8:55 PM 69.8 °F 59.0 °F 68% 29.83 in 10.0 mi South 4.6 mph - N/A   Clear
9:15 PM 69.8 °F 59.0 °F 68% 29.83 in 10.0 mi Calm Calm - N/A   Clear
9:35 PM 68.0 °F 59.0 °F 73% 29.83 in 10.0 mi Calm Calm - N/A   Clear
9:55 PM 68.0 °F 59.0 °F 73% 29.83 in 10.0 mi Calm Calm - N/A   Clear
10:15 PM 66.2 °F 60.8 °F 83% 29.84 in 10.0 mi Calm Calm - N/A   Clear
10:35 PM 64.4 °F 60.8 °F 88% 29.83 in 10.0 mi Calm Calm - N/A   Clear
10:55 PM 64.4 °F 60.8 °F 88% 29.84 in 10.0 mi Calm Calm - N/A   Clear
11:15 PM 62.6 °F 60.8 °F 94% 29.83 in 10.0 mi Calm Calm - N/A   Clear
11:35 PM 62.6 °F 60.8 °F 94% 29.84 in 10.0 mi Calm Calm - N/A   Clear
11:55 PM 64.4 °F 60.8 °F 88% 29.84 in 10.0 mi Calm Calm - N/A   Clear